Weather History for Centerville, IA

Change the Weather History Date:

Thursday, March 20, 2014

  Actual Average Record
Temperature  
Mean Temperature 44 °F -  
Max Temperature 59 °F 51 °F 75 °F (2012)
Min Temperature 30 °F 31 °F 9 °F (1965)
Degree Days  
Heating Degree Days 20    
Moisture  
Dew Point 30 °F    
Average Humidity 62    
Maximum Humidity 86    
Minimum Humidity 38    
Precipitation  
Precipitation 0.00 in - - ()
Sea Level Pressure  
Sea Level Pressure 29.98 in    
Wind  
Wind Speed 7 mph (East)    
Max Wind Speed 15 mph    
Max Gust Speed 20 mph    
Visibility 10 miles    
Events      
Averages and records for this station are not official NWS values.
T = Trace of Precipitation, MM = Missing Value Source: NWS Daily Summary

Daily Weather History Graph

Daily Weather History Graph

Search for Another Location

Airport:

Trip Planner

Search our weather history database for the weather conditions in past years. The results will help you decide how hot, cold, wet, or windy it might be!

Date:

Astronomy

Mar. 20, 2014 Rise Set
Actual Time 7:14 AM CDT 7:23 PM CDT
Civil Twilight 6:47 AM CDT 7:51 PM CDT
Nautical Twilight 6:15 AM CDT 8:23 PM CDT
Astronomical Twilight 5:43 AM CDT 8:55 PM CDT
Moon 11:45 PM CDT (3/20) 9:20 AM CDT (3/20)
Length of Visible Light 13h 03m
Length of Day
12h 08m
Waning Gibbous, 84% of the Moon is Illuminated
Mar 20
Waning Gibbous
Mar 23
Last Quarter
Mar 30
New
Apr 7
First Quarter
Apr 15
Full

Hourly Weather History & Observations

Time (CDT) Temp. Windchill Dew Point Humidity Pressure Visibility Wind Dir Wind Speed Gust Speed Precip Events Conditions
12:15 AM 32.0 °F 25.6 °F 26.6 °F 80% 30.07 in 10.0 mi SSW 6.9 mph - N/A   Mostly Cloudy
12:35 AM 32.0 °F 25.6 °F 26.6 °F 80% 30.06 in 10.0 mi SW 6.9 mph - N/A   Mostly Cloudy
1:15 AM 32.0 °F 24.8 °F 26.6 °F 80% 30.05 in 10.0 mi SSW 8.1 mph - N/A   Mostly Cloudy
1:35 AM 33.8 °F 27.7 °F 28.4 °F 81% 30.05 in 10.0 mi SSW 6.9 mph - N/A   Mostly Cloudy
1:50 AM 33.8 °F 27.7 °F 28.4 °F 81% 30.05 in 10.0 mi SSW 6.9 mph - N/A   Scattered Clouds
2:15 AM 35.6 °F 28.6 °F 28.4 °F 75% 30.05 in 10.0 mi SW 9.2 mph - N/A   Partly Cloudy
2:35 AM 35.6 °F 28.0 °F 28.4 °F 75% 30.04 in 10.0 mi SW 10.4 mph - N/A   Scattered Clouds
2:55 AM 35.6 °F 28.6 °F 26.6 °F 70% 30.04 in 10.0 mi SW 9.2 mph - N/A   Partly Cloudy
3:15 AM 35.6 °F 28.6 °F 26.6 °F 70% 30.04 in 10.0 mi SW 9.2 mph - N/A   Partly Cloudy
3:35 AM 35.6 °F 29.2 °F 26.6 °F 70% 30.04 in 10.0 mi SW 8.1 mph - N/A   Scattered Clouds
3:55 AM 33.8 °F 27.0 °F 26.6 °F 75% 30.04 in 10.0 mi SW 8.1 mph - N/A   Mostly Cloudy
4:15 AM 35.6 °F 29.2 °F 26.6 °F 70% 30.04 in 10.0 mi WSW 8.1 mph - N/A   Mostly Cloudy
4:35 AM 32.0 °F 25.6 °F 26.6 °F 80% 30.04 in 10.0 mi SW 6.9 mph - N/A   Partly Cloudy
4:55 AM 32.0 °F 24.8 °F 26.6 °F 80% 30.04 in 10.0 mi SW 8.1 mph - N/A   Clear
5:15 AM 32.0 °F 25.6 °F 26.6 °F 80% 30.04 in 10.0 mi SW 6.9 mph - N/A   Clear
5:35 AM 32.0 °F 25.6 °F 26.6 °F 80% 30.04 in 10.0 mi SW 6.9 mph - N/A   Clear
5:55 AM 32.0 °F 28.7 °F 24.8 °F 75% 30.05 in 10.0 mi West 3.5 mph - N/A   Clear
6:15 AM 30.2 °F 25.4 °F 24.8 °F 80% 30.07 in 10.0 mi NW 4.6 mph - N/A   Clear
6:35 AM 32.0 °F 28.7 °F 24.8 °F 75% 30.07 in 10.0 mi West 3.5 mph - N/A   Clear
6:55 AM 32.0 °F - 26.6 °F 80% 30.07 in 10.0 mi Calm Calm - N/A   Clear
7:15 AM 30.2 °F - 26.6 °F 86% 30.06 in 10.0 mi Calm Calm - N/A   Clear
7:35 AM 32.0 °F 28.7 °F 24.8 °F 75% 30.07 in 10.0 mi West 3.5 mph - N/A   Clear
7:55 AM 32.0 °F - 24.8 °F 75% 30.07 in 10.0 mi Calm Calm - N/A   Clear
8:15 AM 35.6 °F - 28.4 °F 75% 30.07 in 10.0 mi Calm Calm - N/A   Clear
8:35 AM 33.8 °F - 28.4 °F 81% 30.06 in 10.0 mi Calm Calm - N/A   Clear
8:55 AM 37.4 °F - 30.2 °F 75% 30.06 in 10.0 mi Calm Calm - N/A   Clear
9:15 AM 39.2 °F - 30.2 °F 70% 30.06 in 10.0 mi Calm Calm - N/A   Clear
9:35 AM 39.2 °F 35.9 °F 32.0 °F 75% 30.06 in 10.0 mi NNE 4.6 mph - N/A   Clear
9:55 AM 41.0 °F 36.4 °F 32.0 °F 70% 30.06 in 10.0 mi NE 6.9 mph - N/A   Clear
10:15 AM 42.8 °F 39.3 °F 32.0 °F 66% 30.05 in 10.0 mi NE 5.8 mph - N/A   Clear
10:35 AM 44.6 °F 40.2 °F 32.0 °F 61% 30.05 in 10.0 mi NE 8.1 mph - N/A   Clear
10:55 AM 44.6 °F 40.7 °F 32.0 °F 61% 30.05 in 10.0 mi ENE 6.9 mph - N/A   Clear
11:15 AM 46.4 °F 45.2 °F 30.2 °F 53% 30.05 in 10.0 mi NE 3.5 mph - N/A   Clear
11:35 AM 46.4 °F 44.3 °F 28.4 °F 50% 30.04 in 10.0 mi ESE 4.6 mph - N/A   Clear
11:55 AM 48.2 °F - 28.4 °F 46% 30.04 in 10.0 mi ESE 4.6 mph - N/A   Clear
12:15 PM 50.0 °F - 32.0 °F 50% 30.02 in 10.0 mi SSE 5.8 mph - N/A   Clear
12:35 PM 50.0 °F - 32.0 °F 50% 30.01 in 10.0 mi ENE 4.6 mph - N/A   Clear
12:55 PM 50.0 °F - 32.0 °F 50% 30.01 in 10.0 mi SE 6.9 mph - N/A   Clear
1:15 PM 51.8 °F - 32.0 °F 47% 30.00 in 10.0 mi NE 3.5 mph - N/A   Clear
1:35 PM 53.6 °F - 32.0 °F 44% 29.99 in 10.0 mi East 6.9 mph - N/A   Clear
1:55 PM 53.6 °F - 32.0 °F 44% 29.99 in 10.0 mi SSE 3.5 mph - N/A   Clear
2:15 PM 55.4 °F - 32.0 °F 41% 29.97 in 10.0 mi East 6.9 mph - N/A   Clear
2:35 PM 55.4 °F - 32.0 °F 41% 29.95 in 10.0 mi ENE 9.2 mph - N/A   Clear
2:55 PM 55.4 °F - 33.8 °F 44% 29.94 in 10.0 mi ESE 10.4 mph - N/A   Clear
3:15 PM 55.4 °F - 33.8 °F 44% 29.92 in 10.0 mi East 9.2 mph 17.3 mph N/A   Clear
3:35 PM 57.2 °F - 33.8 °F 41% 29.92 in 10.0 mi East 11.5 mph - N/A   Clear
3:55 PM 57.2 °F - 32.0 °F 38% 29.91 in 10.0 mi East 8.1 mph - N/A   Clear
4:15 PM 57.2 °F - 32.0 °F 38% 29.90 in 10.0 mi East 10.4 mph 16.1 mph N/A   Clear
4:35 PM 57.2 °F - 32.0 °F 38% 29.89 in 10.0 mi East 10.4 mph - N/A   Clear
4:55 PM 59.0 °F - 33.8 °F 39% 29.89 in 10.0 mi ENE 10.4 mph - N/A   Clear
5:15 PM 57.2 °F - 32.0 °F 38% 29.88 in 10.0 mi East 11.5 mph - N/A   Clear
5:35 PM 57.2 °F - 33.8 °F 41% 29.88 in 10.0 mi ENE 15.0 mph 18.4 mph N/A   Clear
5:55 PM 55.4 °F - 33.8 °F 44% 29.88 in 10.0 mi ENE 12.7 mph - N/A   Clear
6:15 PM 53.6 °F - 33.8 °F 47% 29.87 in 10.0 mi ENE 11.5 mph - N/A   Clear
6:35 PM 53.6 °F - 33.8 °F 47% 29.87 in 10.0 mi ENE 10.4 mph 19.6 mph N/A   Clear
6:55 PM 51.8 °F - 32.0 °F 47% 29.87 in 10.0 mi ENE 11.5 mph - N/A   Clear
7:15 PM 50.0 °F - 32.0 °F 50% 29.87 in 10.0 mi ENE 11.5 mph - N/A   Partly Cloudy
7:35 PM 48.2 °F - 32.0 °F 54% 29.87 in 10.0 mi ENE 10.4 mph - N/A   Scattered Clouds
7:55 PM 48.2 °F - 32.0 °F 54% 29.88 in 10.0 mi ENE 11.5 mph - N/A   Partly Cloudy
8:15 PM 46.4 °F 41.5 °F 32.0 °F 57% 29.88 in 10.0 mi ENE 10.4 mph 17.3 mph N/A   Clear
8:35 PM 46.4 °F 41.1 °F 32.0 °F 57% 29.88 in 10.0 mi ENE 11.5 mph - N/A   Clear
8:55 PM 46.4 °F 41.5 °F 32.0 °F 57% 29.89 in 10.0 mi ENE 10.4 mph 16.1 mph N/A   Clear
9:15 PM 44.6 °F 39.7 °F 32.0 °F 61% 29.89 in 10.0 mi ENE 9.2 mph - N/A   Clear
9:35 PM 44.6 °F 39.7 °F 32.0 °F 61% 29.89 in 10.0 mi ENE 9.2 mph - N/A   Clear
9:55 PM 44.6 °F 39.7 °F 32.0 °F 61% 29.89 in 10.0 mi ENE 9.2 mph - N/A   Clear
10:15 PM 44.6 °F 39.2 °F 32.0 °F 61% 29.90 in 10.0 mi ENE 10.4 mph - N/A   Clear
10:35 PM 42.8 °F 36.6 °F 32.0 °F 66% 29.90 in 10.0 mi ENE 11.5 mph 16.1 mph N/A   Clear
10:55 PM 41.0 °F 34.7 °F 32.0 °F 70% 29.90 in 10.0 mi ENE 10.4 mph - N/A   Clear
11:15 PM 41.0 °F 35.2 °F 32.0 °F 70% 29.90 in 10.0 mi NE 9.2 mph - N/A   Clear
11:35 PM 41.0 °F 34.7 °F 32.0 °F 70% 29.90 in 10.0 mi ENE 10.4 mph - N/A   Clear
11:55 PM 41.0 °F 35.2 °F 32.0 °F 70% 29.90 in 10.0 mi ENE 9.2 mph - N/A   Clear